Aérodrome :
LOGIN :

S'inscrire | Disclaimer

   EN    FR    IT 

 










Légende :    VFR   VFR Marginal   IFR   IFR Intensif   IFR Très Intensif
Visi : 
Plafond : 
>= 8 km
>= 3000ft
5 à 8 km
1000 à 3000 ft
1500m à 5 km
500 à 1000 ft
800 à 1500m
200 à 500 ft
< 800m
< 200 ft
Symboles :   Orages  Brouillard  Fortes neiges  Fortes précipitations  Vent > 20 kt
SIGMETs :   Divers  Orages  Givrage  Turbulence  Onde Orograph.  Cendres Volcan.







- Altitude de l'aérodrome : 1768 ft


LEHC - Huesca Pirineos

DERNIER METAR :
  • 241000Z 20002KT CAVOK 27/16 Q1021

METARs EXPIRÉS :
  • 240930Z VRB04KT CAVOK 26/16 Q1021
  • 240900Z 21004KT 150V270 CAVOK 25/16 Q1021
  • 240830Z VRB02KT CAVOK 24/16 Q1021
  • 240800Z 26006KT 220V310 CAVOK 23/16 Q1021
  • 240730Z 26005KT 220V300 CAVOK 21/16 Q1021

Prévision TAF périmée.
Pas de NOTAMs connus pour ce terrain.



MET'MAP, la Météo Aéronautique d'un coup d'oeil ! - Copyright ORBIFLY Décembre 2007 - Disclaimer

ORBIFLY MET'MAP TEAM :

Programmation & Développement : Alexandra Zaïnal
Conception & Développement : Baudouin d'Aumeries
Co-Programmation & Développement : Marc-Olivier Méhu
Soutien technique & logistique : Manuel Goepfert

Contact : metmap@orbifly.com




SOURCES & CREDITS :

   NOAA